Time,TemperatureF,DewpointF,PressureIn,WindDirection,WindDirectionDegrees,WindSpeedMPH,WindSpeedGustMPH,Humidity,HourlyPrecipIn,Conditions,Clouds,dailyrainin,SoftwareType,DateUTC
2013-02-21 00:04:00,38.5,16.3,24.69,SE,130,7.0,10.5,40,0.00,,,-99.99,FreeWX 2.04,2013-02-21 07:04:00,
2013-02-21 00:09:00,38.3,16.2,24.69,SSE,153,6.0,9.6,40,0.00,,,-99.99,FreeWX 2.04,2013-02-21 07:09:00,
2013-02-21 00:14:00,38.1,16.5,24.69,South,184,6.0,8.3,41,0.00,,,-99.99,FreeWX 2.04,2013-02-21 07:14:00,
2013-02-21 00:19:00,38.1,16.5,24.69,South,188,6.0,9.2,41,0.00,,,-99.99,FreeWX 2.04,2013-02-21 07:19:00,
2013-02-21 00:24:00,37.9,16.3,24.69,South,174,5.0,7.4,41,0.00,,,-99.99,FreeWX 2.04,2013-02-21 07:24:00,
2013-02-21 00:30:00,38.3,16.7,24.69,South,175,5.0,10.1,41,0.00,,,-99.99,FreeWX 2.04,2013-02-21 07:30:00,
2013-02-21 00:35:00,38.1,16.0,24.69,South,171,6.0,9.2,40,0.00,,,-99.99,FreeWX 2.04,2013-02-21 07:35:00,
2013-02-21 00:40:00,37.9,16.3,24.69,South,174,5.0,9.2,41,0.00,,,-99.99,FreeWX 2.04,2013-02-21 07:40:00,
2013-02-21 00:45:00,37.0,19.2,24.69,SSW,202,6.0,9.2,48,0.00,,,-99.99,FreeWX 2.04,2013-02-21 07:45:00,
2013-02-21 00:50:00,36.5,21.0,24.69,SW,228,6.0,9.2,53,0.00,,,-99.99,FreeWX 2.04,2013-02-21 07:50:00,
2013-02-21 00:55:00,36.3,21.7,24.69,SW,236,5.0,7.4,55,0.00,,,-99.99,FreeWX 2.04,2013-02-21 07:55:00,
2013-02-21 01:00:00,36.3,22.1,24.69,WSW,239,4.0,8.3,56,0.00,,,-99.99,FreeWX 2.04,2013-02-21 08:00:00,
2013-02-21 01:05:00,35.8,22.5,24.69,SSW,207,4.0,6.7,58,0.00,,,-99.99,FreeWX 2.04,2013-02-21 08:05:00,
2013-02-21 01:10:00,35.6,23.2,24.69,South,172,4.0,6.7,60,0.00,,,-99.99,FreeWX 2.04,2013-02-21 08:10:00,
2013-02-21 01:15:00,35.4,23.4,24.69,South,182,4.0,6.9,61,0.00,,,-99.99,FreeWX 2.04,2013-02-21 08:15:00,
2013-02-21 01:20:00,35.1,24.4,24.69,South,187,5.0,7.4,65,0.00,,,-99.99,FreeWX 2.04,2013-02-21 08:20:00,
2013-02-21 01:25:00,34.9,24.3,24.69,South,181,4.0,4.5,65,0.00,,,-99.99,FreeWX 2.04,2013-02-21 08:25:00,
2013-02-21 01:30:00,34.9,24.6,24.69,South,182,4.0,5.4,66,0.00,,,-99.99,FreeWX 2.04,2013-02-21 08:30:00,
2013-02-21 01:35:00,34.9,25.0,24.69,South,184,4.0,5.8,67,0.00,,,-99.99,FreeWX 2.04,2013-02-21 08:35:00,
2013-02-21 01:40:00,34.9,25.0,24.69,South,188,2.0,4.0,67,0.00,,,-99.99,FreeWX 2.04,2013-02-21 08:40:00,
2013-02-21 01:45:00,34.9,24.6,24.69,North,-999,0.0,3.1,66,0.00,,,-99.99,FreeWX 2.04,2013-02-21 08:45:00,
2013-02-21 01:50:00,34.7,25.2,24.69,South,188,1.0,5.4,68,0.00,,,-99.99,FreeWX 2.04,2013-02-21 08:50:00,
2013-02-21 01:55:00,34.7,25.2,24.69,South,186,2.0,4.9,68,0.00,,,-99.99,FreeWX 2.04,2013-02-21 08:55:00,
2013-02-21 02:00:00,34.9,25.0,24.69,SSE,168,2.0,6.9,67,0.00,,,-99.99,FreeWX 2.04,2013-02-21 09:00:00,
2013-02-21 02:05:00,35.1,24.4,24.69,SSE,151,4.0,6.7,65,0.00,,,-99.99,FreeWX 2.04,2013-02-21 09:05:00,
2013-02-21 02:10:00,35.1,24.1,24.69,SSE,167,4.0,5.8,64,0.00,,,-99.99,FreeWX 2.04,2013-02-21 09:10:00,
2013-02-21 02:15:00,35.4,23.7,24.69,SSW,192,5.0,6.3,62,0.00,,,-99.99,FreeWX 2.04,2013-02-21 09:15:00,
2013-02-21 02:20:00,35.4,23.4,24.69,SSW,193,4.0,5.4,61,0.00,,,-99.99,FreeWX 2.04,2013-02-21 09:20:00,
2013-02-21 02:25:00,35.2,23.2,24.69,SSE,157,2.0,5.8,61,0.00,,,-99.99,FreeWX 2.04,2013-02-21 09:25:00,
2013-02-21 02:30:00,35.4,23.4,24.69,SE,128,2.0,4.9,61,0.00,,,-99.99,FreeWX 2.04,2013-02-21 09:30:00,
2013-02-21 02:35:00,35.2,23.2,24.69,SE,129,3.0,4.9,61,0.00,,,-99.99,FreeWX 2.04,2013-02-21 09:35:00,
2013-02-21 02:40:00,35.2,23.2,24.69,SE,136,3.0,6.7,61,0.00,,,-99.99,FreeWX 2.04,2013-02-21 09:40:00,
2013-02-21 02:45:00,35.4,23.4,24.69,SSE,156,4.0,7.4,61,0.00,,,-99.99,FreeWX 2.04,2013-02-21 09:45:00,
2013-02-21 02:50:00,35.1,23.4,24.69,South,172,5.0,7.4,62,0.00,,,-99.99,FreeWX 2.04,2013-02-21 09:50:00,
2013-02-21 02:55:00,34.9,23.5,24.69,South,179,5.0,6.3,63,0.00,,,-99.99,FreeWX 2.04,2013-02-21 09:55:00,
2013-02-21 03:00:00,34.7,24.8,24.69,South,189,6.0,10.5,67,0.00,,,-99.99,FreeWX 2.04,2013-02-21 10:00:00,
2013-02-21 03:05:00,34.5,25.0,24.69,SSW,192,7.0,7.4,68,0.00,,,-99.99,FreeWX 2.04,2013-02-21 10:05:00,
2013-02-21 03:10:00,34.5,25.0,24.69,South,191,6.0,7.8,68,0.00,,,-99.99,FreeWX 2.04,2013-02-21 10:10:00,
2013-02-21 03:15:00,34.5,25.3,24.69,SSW,193,6.0,7.8,69,0.00,,,-99.99,FreeWX 2.04,2013-02-21 10:15:00,
2013-02-21 03:20:00,34.3,25.0,24.69,South,190,6.0,7.8,68,0.00,,,-99.99,FreeWX 2.04,2013-02-21 10:20:00,
2013-02-21 03:25:00,34.3,24.6,24.69,South,188,6.0,7.4,67,0.00,,,-99.99,FreeWX 2.04,2013-02-21 10:25:00,
2013-02-21 03:30:00,34.5,23.9,24.69,South,190,6.0,9.2,65,0.00,,,-99.99,FreeWX 2.04,2013-02-21 10:30:00,
2013-02-21 03:35:00,34.5,23.5,24.69,South,187,6.0,10.5,64,0.00,,,-99.99,FreeWX 2.04,2013-02-21 10:35:00,
2013-02-21 03:40:00,34.3,23.4,24.69,South,184,6.0,8.3,64,0.00,,,-99.99,FreeWX 2.04,2013-02-21 10:40:00,
2013-02-21 03:45:00,34.3,23.9,24.69,South,177,5.0,7.8,65,0.00,,,-99.99,FreeWX 2.04,2013-02-21 10:45:00,
2013-02-21 03:50:00,34.3,23.9,24.69,South,171,4.0,5.8,65,0.00,,,-99.99,FreeWX 2.04,2013-02-21 10:50:00,
2013-02-21 03:55:00,34.2,24.1,24.69,South,171,4.0,5.4,66,0.00,,,-99.99,FreeWX 2.04,2013-02-21 10:55:00,
2013-02-21 04:00:00,34.2,24.1,24.69,South,175,4.0,7.8,66,0.00,,,-99.99,FreeWX 2.04,2013-02-21 11:00:00,
2013-02-21 04:05:00,34.2,24.1,24.72,South,175,4.0,5.8,66,0.00,,,-99.99,FreeWX 2.04,2013-02-21 11:05:00,
2013-02-21 04:10:00,34.2,24.1,24.72,South,171,3.0,7.4,66,0.00,,,-99.99,FreeWX 2.04,2013-02-21 11:10:00,
2013-02-21 04:15:00,34.2,24.1,24.72,SSE,168,3.0,4.9,66,0.00,,,-99.99,FreeWX 2.04,2013-02-21 11:15:00,
2013-02-21 04:20:00,34.0,23.9,24.72,SSE,162,2.0,4.9,66,0.00,,,-99.99,FreeWX 2.04,2013-02-21 11:20:00,
2013-02-21 04:25:00,34.0,24.3,24.72,SSE,160,2.0,4.0,67,0.00,,,-99.99,FreeWX 2.04,2013-02-21 11:25:00,
2013-02-21 04:30:00,34.0,24.3,24.72,SSE,160,2.0,4.0,67,0.00,,,-99.99,FreeWX 2.04,2013-02-21 11:30:00,
2013-02-21 04:35:00,34.2,24.4,24.72,South,173,2.0,4.0,67,0.00,,,-99.99,FreeWX 2.04,2013-02-21 11:35:00,
2013-02-21 04:40:00,34.2,24.1,24.72,South,191,1.0,4.0,66,0.00,,,-99.99,FreeWX 2.04,2013-02-21 11:40:00,
2013-02-21 04:45:00,34.2,24.1,24.72,SSW,203,1.0,4.9,66,0.00,,,-99.99,FreeWX 2.04,2013-02-21 11:45:00,
2013-02-21 04:50:00,34.2,24.4,24.72,SW,232,2.0,5.4,67,0.00,,,-99.99,FreeWX 2.04,2013-02-21 11:50:00,
2013-02-21 04:55:00,34.2,24.1,24.72,WSW,248,3.0,6.7,66,0.00,,,-99.99,FreeWX 2.04,2013-02-21 11:55:00,
2013-02-21 05:01:00,34.2,24.1,24.72,SW,217,2.0,4.5,66,0.00,,,-99.99,FreeWX 2.04,2013-02-21 12:01:00,
2013-02-21 05:06:00,34.0,23.9,24.72,North,-999,0.0,3.1,66,0.00,,,-99.99,FreeWX 2.04,2013-02-21 12:06:00,
2013-02-21 05:11:00,34.0,23.9,24.72,North,-999,0.0,3.6,66,0.00,,,-99.99,FreeWX 2.04,2013-02-21 12:11:00,
2013-02-21 05:16:00,34.0,23.9,24.72,South,187,2.0,4.5,66,0.00,,,-99.99,FreeWX 2.04,2013-02-21 12:16:00,
2013-02-21 05:21:00,33.8,24.1,24.72,SSW,207,3.0,4.5,67,0.00,,,-99.99,FreeWX 2.04,2013-02-21 12:21:00,
2013-02-21 05:26:00,34.0,24.3,24.72,WSW,258,3.0,4.9,67,0.00,,,-99.99,FreeWX 2.04,2013-02-21 12:26:00,
2013-02-21 05:31:00,34.2,24.4,24.72,WNW,297,3.0,4.0,67,0.00,,,-99.99,FreeWX 2.04,2013-02-21 12:31:00,
2013-02-21 05:36:00,34.2,24.4,24.75,NW,312,1.0,0.0,67,0.00,,,-99.99,FreeWX 2.04,2013-02-21 12:36:00,
2013-02-21 05:41:00,34.2,24.1,24.75,NW,312,1.0,4.0,66,0.00,,,-99.99,FreeWX 2.04,2013-02-21 12:41:00,
2013-02-21 05:46:00,34.0,23.9,24.75,NW,312,1.0,4.0,66,0.00,,,-99.99,FreeWX 2.04,2013-02-21 12:46:00,
2013-02-21 05:51:00,34.0,23.9,24.75,North,-999,0.0,3.6,66,0.00,,,-99.99,FreeWX 2.04,2013-02-21 12:51:00,
2013-02-21 05:56:00,33.8,24.1,24.75,NW,316,1.0,4.5,67,0.00,,,-99.99,FreeWX 2.04,2013-02-21 12:56:00,
2013-02-21 06:01:00,33.6,23.9,24.75,NW,325,2.0,4.0,67,0.00,,,-99.99,FreeWX 2.04,2013-02-21 13:01:00,
2013-02-21 06:06:00,33.6,24.3,24.75,NNW,332,1.0,0.0,68,0.00,,,-99.99,FreeWX 2.04,2013-02-21 13:06:00,
2013-02-21 06:11:00,33.4,24.1,24.75,North,-999,0.0,0.0,68,0.00,,,-99.99,FreeWX 2.04,2013-02-21 13:11:00,
2013-02-21 06:16:00,33.6,24.3,24.75,North,-999,0.0,0.0,68,0.00,,,-99.99,FreeWX 2.04,2013-02-21 13:16:00,
2013-02-21 06:21:00,33.6,24.3,24.75,North,-999,0.0,0.0,68,0.00,,,-99.99,FreeWX 2.04,2013-02-21 13:21:00,
2013-02-21 06:26:00,33.4,24.1,24.75,North,-999,0.0,0.0,68,0.00,,,-99.99,FreeWX 2.04,2013-02-21 13:26:00,
2013-02-21 06:31:00,33.3,23.5,24.75,North,-999,0.0,3.1,67,0.00,,,-99.99,FreeWX 2.04,2013-02-21 13:31:00,
2013-02-21 06:36:00,33.3,23.5,24.75,NNW,334,1.0,3.6,67,0.00,,,-99.99,FreeWX 2.04,2013-02-21 13:36:00,
2013-02-21 06:41:00,33.4,24.1,24.75,North,-999,0.0,0.0,68,0.00,,,-99.99,FreeWX 2.04,2013-02-21 13:41:00,
2013-02-21 06:46:00,33.6,24.3,24.75,North,-999,0.0,2.7,68,0.00,,,-99.99,FreeWX 2.04,2013-02-21 13:46:00,
2013-02-21 06:51:00,33.6,23.9,24.75,North,-999,0.0,2.7,67,0.00,,,-99.99,FreeWX 2.04,2013-02-21 13:51:00,
2013-02-21 06:56:00,33.6,23.9,24.75,NNW,334,1.0,4.5,67,0.00,,,-99.99,FreeWX 2.04,2013-02-21 13:56:00,
2013-02-21 07:01:00,33.6,23.5,24.75,NNW,334,1.0,0.0,66,0.00,,,-99.99,FreeWX 2.04,2013-02-21 14:01:00,
2013-02-21 07:06:00,33.6,23.5,24.75,North,-999,0.0,0.0,66,0.00,,,-99.99,FreeWX 2.04,2013-02-21 14:06:00,
2013-02-21 07:11:00,33.3,23.2,24.75,North,-999,0.0,0.0,66,0.00,,,-99.99,FreeWX 2.04,2013-02-21 14:11:00,
2013-02-21 07:16:00,32.7,22.6,24.75,North,-999,0.0,0.0,66,0.00,,,-99.99,FreeWX 2.04,2013-02-21 14:16:00,
2013-02-21 07:21:00,32.7,23.0,24.77,North,-999,0.0,0.0,67,0.00,,,-99.99,FreeWX 2.04,2013-02-21 14:21:00,
2013-02-21 07:26:00,33.3,23.5,24.77,North,-999,0.0,4.5,67,0.00,,,-99.99,FreeWX 2.04,2013-02-21 14:26:00,
2013-02-21 07:31:00,33.3,23.9,24.77,North,-999,0.0,0.0,68,0.00,,,-99.99,FreeWX 2.04,2013-02-21 14:31:00,
2013-02-21 07:36:00,33.4,24.8,24.77,NNW,339,2.0,6.3,70,0.00,,,-99.99,FreeWX 2.04,2013-02-21 14:36:00,
2013-02-21 07:41:00,33.3,25.5,24.77,NNW,341,4.0,8.3,73,0.00,,,-99.99,FreeWX 2.04,2013-02-21 14:41:00,
2013-02-21 07:46:00,33.1,26.1,24.77,NNW,344,5.0,9.2,75,0.00,,,-99.99,FreeWX 2.04,2013-02-21 14:46:00,
2013-02-21 07:51:00,33.1,26.6,24.77,North,354,5.0,7.8,77,0.00,,,-99.99,FreeWX 2.04,2013-02-21 14:51:00,
2013-02-21 07:56:00,33.1,27.0,24.77,North,8,4.0,6.3,78,0.00,,,-99.99,FreeWX 2.04,2013-02-21 14:56:00,
2013-02-21 08:01:00,33.1,27.0,24.77,North,9,4.0,6.9,78,0.00,,,-99.99,FreeWX 2.04,2013-02-21 15:01:00,
2013-02-21 08:06:00,33.1,27.3,24.77,North,357,4.0,6.3,79,0.00,,,-99.99,FreeWX 2.04,2013-02-21 15:06:00,
2013-02-21 08:11:00,33.3,27.5,24.77,North,355,4.0,5.8,79,0.00,,,-99.99,FreeWX 2.04,2013-02-21 15:11:00,
2013-02-21 08:16:00,33.6,27.5,24.77,North,356,4.0,6.7,78,0.00,,,-99.99,FreeWX 2.04,2013-02-21 15:16:00,
2013-02-21 08:21:00,33.8,27.3,24.80,North,353,4.0,5.8,77,0.00,,,-99.99,FreeWX 2.04,2013-02-21 15:21:00,
2013-02-21 08:26:00,33.8,26.8,24.80,NNW,342,4.0,5.4,75,0.00,,,-99.99,FreeWX 2.04,2013-02-21 15:26:00,
2013-02-21 08:31:00,34.0,26.6,24.80,NNW,337,4.0,6.3,74,0.00,,,-99.99,FreeWX 2.04,2013-02-21 15:31:00,
2013-02-21 08:36:00,34.0,26.6,24.80,NNW,335,3.0,5.4,74,0.00,,,-99.99,FreeWX 2.04,2013-02-21 15:36:00,
2013-02-21 08:41:00,33.8,26.4,24.80,NW,326,3.0,5.8,74,0.00,,,-99.99,FreeWX 2.04,2013-02-21 15:41:00,
2013-02-21 08:46:00,33.8,26.4,24.80,NW,325,4.0,5.4,74,0.00,,,-99.99,FreeWX 2.04,2013-02-21 15:46:00,
2013-02-21 08:51:00,33.8,26.4,24.80,NW,325,4.0,6.3,74,0.00,,,-99.99,FreeWX 2.04,2013-02-21 15:51:00,
2013-02-21 08:56:00,33.8,26.4,24.80,NW,322,4.0,5.8,74,0.00,,,-99.99,FreeWX 2.04,2013-02-21 15:56:00,
2013-02-21 09:01:00,33.8,26.4,24.80,NW,322,4.0,5.8,74,0.00,,,-99.99,FreeWX 2.04,2013-02-21 16:01:00,
2013-02-21 09:06:00,34.0,27.0,24.80,NW,324,4.0,6.9,75,0.00,,,-99.99,FreeWX 2.04,2013-02-21 16:06:00,
2013-02-21 09:11:00,34.0,27.0,24.80,NW,317,4.0,6.9,75,0.00,,,-99.99,FreeWX 2.04,2013-02-21 16:11:00,
2013-02-21 09:16:00,34.3,27.0,24.80,NW,315,4.0,5.8,74,0.00,,,-99.99,FreeWX 2.04,2013-02-21 16:16:00,
2013-02-21 09:21:00,35.1,27.7,24.80,NNW,331,3.0,5.4,74,0.00,,,-99.99,FreeWX 2.04,2013-02-21 16:21:00,
2013-02-21 09:26:00,35.8,28.0,24.80,NNW,342,2.0,4.5,73,0.00,,,-99.99,FreeWX 2.04,2013-02-21 16:26:00,
2013-02-21 09:31:00,36.7,28.6,24.80,NNW,347,1.0,4.0,72,0.00,,,-99.99,FreeWX 2.04,2013-02-21 16:31:00,
2013-02-21 09:36:00,37.0,27.1,24.80,North,351,1.0,3.6,67,0.00,,,-99.99,FreeWX 2.04,2013-02-21 16:36:00,
2013-02-21 09:41:00,37.4,25.2,24.80,North,351,1.0,4.9,61,0.00,,,-99.99,FreeWX 2.04,2013-02-21 16:41:00,
2013-02-21 09:46:00,37.9,25.0,24.80,NW,325,2.0,5.4,59,0.00,,,-99.99,FreeWX 2.04,2013-02-21 16:46:00,
2013-02-21 09:51:00,38.3,24.1,24.80,West,267,1.0,6.3,56,0.00,,,-99.99,FreeWX 2.04,2013-02-21 16:51:00,
2013-02-21 09:56:00,39.4,23.7,24.80,WSW,255,1.0,6.7,53,0.00,,,-99.99,FreeWX 2.04,2013-02-21 16:56:00,
2013-02-21 10:01:00,38.5,20.5,24.80,SW,227,3.0,7.4,48,0.00,,,-99.99,FreeWX 2.04,2013-02-21 17:01:00,
2013-02-21 10:06:00,38.8,18.9,24.83,South,188,6.0,11.2,44,0.00,,,-99.99,FreeWX 2.04,2013-02-21 17:06:00,
2013-02-21 10:11:00,38.7,17.6,24.83,South,172,7.0,10.5,42,0.00,,,-99.99,FreeWX 2.04,2013-02-21 17:11:00,
2013-02-21 10:16:00,38.8,16.0,24.83,South,181,7.0,12.5,39,0.00,,,-99.99,FreeWX 2.04,2013-02-21 17:16:00,
2013-02-21 10:21:00,39.4,16.0,24.83,SSW,196,8.0,12.5,38,0.00,,,-99.99,FreeWX 2.04,2013-02-21 17:21:00,
2013-02-21 10:26:00,39.7,16.2,24.83,SSW,195,8.0,12.5,38,0.00,,,-99.99,FreeWX 2.04,2013-02-21 17:26:00,
2013-02-21 10:31:00,40.3,16.2,24.83,SSW,202,8.0,11.0,37,0.00,,,-99.99,FreeWX 2.04,2013-02-21 17:31:00,
2013-02-21 10:36:00,39.9,13.1,24.83,SSW,204,7.0,13.0,33,0.00,,,-99.99,FreeWX 2.04,2013-02-21 17:36:00,
2013-02-21 10:41:00,39.9,13.1,24.83,SSW,201,8.0,13.4,33,0.00,,,-99.99,FreeWX 2.04,2013-02-21 17:41:00,
2013-02-21 10:46:00,39.9,12.6,24.83,SSW,195,8.0,13.4,32,0.00,,,-99.99,FreeWX 2.04,2013-02-21 17:46:00,
2013-02-21 10:51:00,40.5,12.9,24.83,South,188,7.0,8.7,32,0.00,,,-99.99,FreeWX 2.04,2013-02-21 17:51:00,
2013-02-21 10:56:00,41.4,13.8,24.83,South,186,7.0,13.4,32,0.00,,,-99.99,FreeWX 2.04,2013-02-21 17:56:00,
2013-02-21 11:01:00,39.9,11.8,24.83,SSE,167,8.0,12.5,31,0.00,,,-99.99,FreeWX 2.04,2013-02-21 18:01:00,
2013-02-21 11:06:00,40.3,12.0,24.83,SE,146,7.0,11.2,31,0.00,,,-99.99,FreeWX 2.04,2013-02-21 18:06:00,
2013-02-21 11:11:00,39.9,11.8,24.83,SSE,154,6.0,10.5,31,0.00,,,-99.99,FreeWX 2.04,2013-02-21 18:11:00,
2013-02-21 11:16:00,41.5,13.1,24.83,SE,130,5.0,8.3,31,0.00,,,-99.99,FreeWX 2.04,2013-02-21 18:16:00,
2013-02-21 11:21:00,41.4,12.2,24.83,SE,132,6.0,13.4,30,0.00,,,-99.99,FreeWX 2.04,2013-02-21 18:21:00,
2013-02-21 11:26:00,40.5,11.5,24.83,SSW,205,7.0,11.0,30,0.00,,,-99.99,FreeWX 2.04,2013-02-21 18:26:00,
2013-02-21 11:31:00,40.5,11.5,24.83,SSW,206,7.0,11.2,30,0.00,,,-99.99,FreeWX 2.04,2013-02-21 18:31:00,
2013-02-21 11:36:00,40.5,11.5,24.83,SSW,203,8.0,13.0,30,0.00,,,-99.99,FreeWX 2.04,2013-02-21 18:36:00,
2013-02-21 11:41:00,40.6,11.7,24.83,SSW,200,9.0,12.1,30,0.00,,,-99.99,FreeWX 2.04,2013-02-21 18:41:00,
2013-02-21 11:46:00,40.6,10.9,24.83,South,177,8.0,15.2,29,0.00,,,-99.99,FreeWX 2.04,2013-02-21 18:46:00,
2013-02-21 11:51:00,40.5,10.8,24.83,SSE,162,9.0,12.1,29,0.00,,,-99.99,FreeWX 2.04,2013-02-21 18:51:00,
2013-02-21 11:56:00,40.6,10.9,24.83,SSW,203,8.0,13.0,29,0.00,,,-99.99,FreeWX 2.04,2013-02-21 18:56:00,
2013-02-21 12:01:00,42.3,12.4,24.83,SW,234,4.0,4.9,29,0.00,,,-99.99,FreeWX 2.04,2013-02-21 19:01:00,
2013-02-21 12:06:00,42.1,11.3,24.83,SW,227,4.0,11.2,28,0.00,,,-99.99,FreeWX 2.04,2013-02-21 19:06:00,
2013-02-21 12:11:00,41.4,11.5,24.83,South,190,7.0,11.2,29,0.00,,,-99.99,FreeWX 2.04,2013-02-21 19:11:00,
2013-02-21 12:17:00,41.0,11.1,24.83,South,175,7.0,13.4,29,0.00,,,-99.99,FreeWX 2.04,2013-02-21 19:17:00,
2013-02-21 12:22:00,41.0,11.1,24.80,SSW,196,8.0,14.8,29,0.00,,,-99.99,FreeWX 2.04,2013-02-21 19:22:00,
2013-02-21 12:27:00,41.5,11.7,24.80,SSW,198,10.0,15.2,29,0.00,,,-99.99,FreeWX 2.04,2013-02-21 19:27:00,
2013-02-21 12:32:00,42.8,12.7,24.80,South,177,9.0,12.5,29,0.00,,,-99.99,FreeWX 2.04,2013-02-21 19:32:00,
2013-02-21 12:37:00,43.3,12.4,24.80,SSE,160,5.0,7.4,28,0.00,,,-99.99,FreeWX 2.04,2013-02-21 19:37:00,
2013-02-21 12:42:00,41.9,11.1,24.80,SSE,163,3.0,11.0,28,0.00,,,-99.99,FreeWX 2.04,2013-02-21 19:42:00,
2013-02-21 12:47:00,41.2,11.3,24.80,SSW,193,7.0,15.9,29,0.00,,,-99.99,FreeWX 2.04,2013-02-21 19:47:00,
2013-02-21 12:52:00,41.2,10.6,24.80,SSW,208,9.0,11.2,28,0.00,,,-99.99,FreeWX 2.04,2013-02-21 19:52:00,
2013-02-21 12:57:00,42.1,11.3,24.80,SSW,205,7.0,9.2,28,0.00,,,-99.99,FreeWX 2.04,2013-02-21 19:57:00,
2013-02-21 13:02:00,41.9,11.1,24.80,SSW,206,5.0,10.1,28,0.00,,,-99.99,FreeWX 2.04,2013-02-21 20:02:00,
2013-02-21 13:07:00,41.5,10.9,24.80,SSW,211,5.0,8.7,28,0.00,,,-99.99,FreeWX 2.04,2013-02-21 20:07:00,
2013-02-21 13:12:00,41.7,11.1,24.80,SSW,203,7.0,15.2,28,0.00,,,-99.99,FreeWX 2.04,2013-02-21 20:12:00,
2013-02-21 13:17:00,41.7,11.1,24.80,SSW,199,8.0,11.6,28,0.00,,,-99.99,FreeWX 2.04,2013-02-21 20:17:00,
2013-02-21 13:22:00,41.2,10.6,24.80,SW,222,7.0,12.1,28,0.00,,,-99.99,FreeWX 2.04,2013-02-21 20:22:00,
2013-02-21 13:27:00,41.7,11.1,24.80,WSW,246,5.0,8.3,28,0.00,,,-99.99,FreeWX 2.04,2013-02-21 20:27:00,
2013-02-21 13:32:00,41.9,11.1,24.80,SW,218,6.0,11.6,28,0.00,,,-99.99,FreeWX 2.04,2013-02-21 20:32:00,
2013-02-21 13:37:00,42.3,11.5,24.80,South,182,8.0,12.5,28,0.00,,,-99.99,FreeWX 2.04,2013-02-21 20:37:00,
2013-02-21 13:42:00,42.8,12.0,24.80,South,169,8.0,11.6,28,0.00,,,-99.99,FreeWX 2.04,2013-02-21 20:42:00,
2013-02-21 13:47:00,42.8,12.0,24.80,South,174,8.0,14.3,28,0.00,,,-99.99,FreeWX 2.04,2013-02-21 20:47:00,
2013-02-21 13:52:00,43.5,12.6,24.80,South,183,6.0,8.3,28,0.00,,,-99.99,FreeWX 2.04,2013-02-21 20:52:00,
2013-02-21 13:57:00,44.1,12.2,24.80,South,179,5.0,10.5,27,0.00,,,-99.99,FreeWX 2.04,2013-02-21 20:57:00,
2013-02-21 14:02:00,44.1,12.2,24.80,South,184,7.0,14.8,27,0.00,,,-99.99,FreeWX 2.04,2013-02-21 21:02:00,
2013-02-21 14:07:00,42.4,9.1,24.80,South,190,10.0,15.4,25,0.00,,,-99.99,FreeWX 2.04,2013-02-21 21:07:00,
2013-02-21 14:12:00,42.4,11.7,24.80,SSW,208,9.0,16.3,28,0.00,,,-99.99,FreeWX 2.04,2013-02-21 21:12:00,
2013-02-21 14:17:00,42.1,11.3,24.80,SW,231,8.0,13.0,28,0.00,,,-99.99,FreeWX 2.04,2013-02-21 21:17:00,
2013-02-21 14:22:00,41.9,11.1,24.80,WSW,246,8.0,10.1,28,0.00,,,-99.99,FreeWX 2.04,2013-02-21 21:22:00,
2013-02-21 14:27:00,42.1,11.3,24.80,WSW,239,6.0,10.5,28,0.00,,,-99.99,FreeWX 2.04,2013-02-21 21:27:00,
2013-02-21 14:32:00,42.3,11.5,24.80,SW,232,7.0,12.5,28,0.00,,,-99.99,FreeWX 2.04,2013-02-21 21:32:00,
2013-02-21 14:37:00,42.8,12.0,24.80,WSW,237,8.0,11.2,28,0.00,,,-99.99,FreeWX 2.04,2013-02-21 21:37:00,
2013-02-21 14:42:00,43.0,12.2,24.80,WSW,246,8.0,11.2,28,0.00,,,-99.99,FreeWX 2.04,2013-02-21 21:42:00,
2013-02-21 14:47:00,42.8,12.0,24.80,WSW,247,7.0,12.1,28,0.00,,,-99.99,FreeWX 2.04,2013-02-21 21:47:00,
2013-02-21 14:52:00,42.8,9.5,24.80,WSW,245,7.0,12.1,25,0.00,,,-99.99,FreeWX 2.04,2013-02-21 21:52:00,
2013-02-21 14:57:00,43.3,9.9,24.80,SW,227,7.0,15.2,25,0.00,,,-99.99,FreeWX 2.04,2013-02-21 21:57:00,
2013-02-21 15:02:00,43.7,8.4,24.80,SSW,197,8.0,10.1,23,0.00,,,-99.99,FreeWX 2.04,2013-02-21 22:02:00,
2013-02-21 15:07:00,44.8,8.2,24.80,South,187,6.0,9.6,22,0.00,,,-99.99,FreeWX 2.04,2013-02-21 22:07:00,
2013-02-21 15:12:00,42.6,11.8,24.80,SW,220,5.0,10.1,28,0.00,,,-99.99,FreeWX 2.04,2013-02-21 22:12:00,
2013-02-21 15:17:00,41.4,11.5,24.80,WNW,291,5.0,7.4,29,0.00,,,-99.99,FreeWX 2.04,2013-02-21 22:17:00,
2013-02-21 15:22:00,41.2,12.2,24.80,NW,324,4.0,9.6,30,0.00,,,-99.99,FreeWX 2.04,2013-02-21 22:22:00,
2013-02-21 15:27:00,41.2,12.9,24.80,NW,318,4.0,8.3,31,0.00,,,-99.99,FreeWX 2.04,2013-02-21 22:27:00,
2013-02-21 15:32:00,41.2,12.9,24.80,NW,326,4.0,9.2,31,0.00,,,-99.99,FreeWX 2.04,2013-02-21 22:32:00,
2013-02-21 15:37:00,41.2,12.9,24.80,North,354,5.0,7.4,31,0.00,,,-99.99,FreeWX 2.04,2013-02-21 22:37:00,
2013-02-21 15:42:00,41.4,13.1,24.80,North,6,3.0,6.9,31,0.00,,,-99.99,FreeWX 2.04,2013-02-21 22:42:00,
2013-02-21 15:47:00,41.5,13.1,24.80,North,349,4.0,9.2,31,0.00,,,-99.99,FreeWX 2.04,2013-02-21 22:47:00,
2013-02-21 15:52:00,41.2,12.9,24.80,WNW,298,6.0,11.2,31,0.00,,,-99.99,FreeWX 2.04,2013-02-21 22:52:00,
2013-02-21 15:57:00,41.4,13.1,24.80,NW,317,5.0,7.4,31,0.00,,,-99.99,FreeWX 2.04,2013-02-21 22:57:00,
2013-02-21 16:02:00,41.9,13.5,24.80,NW,322,5.0,11.0,31,0.00,,,-99.99,FreeWX 2.04,2013-02-21 23:02:00,
2013-02-21 16:07:00,41.5,13.8,24.80,West,279,6.0,10.1,32,0.00,,,-99.99,FreeWX 2.04,2013-02-21 23:07:00,
2013-02-21 16:12:00,41.4,13.8,24.80,West,271,7.0,11.0,32,0.00,,,-99.99,FreeWX 2.04,2013-02-21 23:12:00,
2013-02-21 16:17:00,42.1,14.4,24.80,West,271,7.0,11.2,32,0.00,,,-99.99,FreeWX 2.04,2013-02-21 23:17:00,
2013-02-21 16:22:00,41.2,13.6,24.80,West,277,6.0,8.7,32,0.00,,,-99.99,FreeWX 2.04,2013-02-21 23:22:00,
2013-02-21 16:27:00,40.5,16.9,24.80,West,268,7.0,11.6,38,0.00,,,-99.99,FreeWX 2.04,2013-02-21 23:27:00,
2013-02-21 16:32:00,40.3,16.7,24.80,West,261,8.0,13.4,38,0.00,,,-99.99,FreeWX 2.04,2013-02-21 23:32:00,
2013-02-21 16:37:00,39.7,17.4,24.80,WSW,257,8.0,14.3,40,0.00,,,-99.99,FreeWX 2.04,2013-02-21 23:37:00,
2013-02-21 16:42:00,39.4,17.6,24.80,WSW,246,7.0,8.7,41,0.00,,,-99.99,FreeWX 2.04,2013-02-21 23:42:00,
2013-02-21 16:47:00,39.2,18.1,24.80,West,259,6.0,10.1,42,0.00,,,-99.99,FreeWX 2.04,2013-02-21 23:47:00,
2013-02-21 16:52:00,39.2,18.7,24.83,West,271,6.0,9.6,43,0.00,,,-99.99,FreeWX 2.04,2013-02-21 23:52:00,
2013-02-21 16:57:00,39.0,19.0,24.83,West,270,6.0,10.1,44,0.00,,,-99.99,FreeWX 2.04,2013-02-21 23:57:00,
2013-02-21 17:02:00,39.0,18.5,24.83,West,272,6.0,10.5,43,0.00,,,-99.99,FreeWX 2.04,2013-02-22 00:02:00,
2013-02-21 17:07:00,38.7,19.2,24.83,West,261,6.0,10.5,45,0.00,,,-99.99,FreeWX 2.04,2013-02-22 00:07:00,
2013-02-21 17:12:00,38.5,19.0,24.83,WSW,252,6.0,8.3,45,0.00,,,-99.99,FreeWX 2.04,2013-02-22 00:12:00,
2013-02-21 17:17:00,38.5,19.0,24.83,WSW,255,5.0,6.3,45,0.00,,,-99.99,FreeWX 2.04,2013-02-22 00:17:00,
2013-02-21 17:22:00,38.5,19.0,24.83,WSW,255,3.0,4.5,45,0.00,,,-99.99,FreeWX 2.04,2013-02-22 00:22:00,
2013-02-21 17:27:00,38.3,18.9,24.83,WSW,255,3.0,4.5,45,0.00,,,-99.99,FreeWX 2.04,2013-02-22 00:27:00,
2013-02-21 17:32:00,38.3,18.9,24.83,WSW,255,2.0,3.6,45,0.00,,,-99.99,FreeWX 2.04,2013-02-22 00:32:00,
2013-02-21 17:37:00,37.9,19.6,24.83,WSW,255,1.0,4.0,47,0.00,,,-99.99,FreeWX 2.04,2013-02-22 00:37:00,
2013-02-21 17:42:00,37.9,20.5,24.83,WSW,255,1.0,4.5,49,0.00,,,-99.99,FreeWX 2.04,2013-02-22 00:42:00,
2013-02-21 17:47:00,37.8,20.3,24.83,WSW,255,1.0,3.6,49,0.00,,,-99.99,FreeWX 2.04,2013-02-22 00:47:00,
2013-02-21 17:52:00,37.9,19.9,24.83,WSW,252,2.0,9.6,48,0.00,,,-99.99,FreeWX 2.04,2013-02-22 00:52:00,
2013-02-21 17:57:00,37.8,20.3,24.83,WSW,243,5.0,10.5,49,0.00,,,-99.99,FreeWX 2.04,2013-02-22 00:57:00,
2013-02-21 18:02:00,37.0,21.6,24.83,SW,235,8.0,11.6,53,0.00,,,-99.99,FreeWX 2.04,2013-02-22 01:02:00,
2013-02-21 18:07:00,36.7,21.6,24.83,SW,228,9.0,12.1,54,0.00,,,-99.99,FreeWX 2.04,2013-02-22 01:07:00,
2013-02-21 18:12:00,36.5,22.8,24.83,SW,231,8.0,10.1,57,0.00,,,-99.99,FreeWX 2.04,2013-02-22 01:12:00,
2013-02-21 18:17:00,36.3,23.0,24.83,WSW,244,6.0,7.8,58,0.00,,,-99.99,FreeWX 2.04,2013-02-22 01:17:00,
2013-02-21 18:22:00,36.1,22.8,24.86,West,262,6.0,6.9,58,0.00,,,-99.99,FreeWX 2.04,2013-02-22 01:22:00,
2013-02-21 18:27:00,36.1,22.5,24.86,West,278,4.0,5.4,57,0.00,,,-99.99,FreeWX 2.04,2013-02-22 01:27:00,
2013-02-21 18:32:00,36.1,22.5,24.86,WNW,282,2.0,4.0,57,0.00,,,-99.99,FreeWX 2.04,2013-02-22 01:32:00,
2013-02-21 18:37:00,35.8,22.1,24.86,NW,314,2.0,5.8,57,0.00,,,-99.99,FreeWX 2.04,2013-02-22 01:37:00,
2013-02-21 18:42:00,35.6,21.9,24.86,ENE,65,3.0,5.8,57,0.00,,,-99.99,FreeWX 2.04,2013-02-22 01:42:00,
2013-02-21 18:47:00,35.6,21.9,24.86,ENE,77,3.0,4.9,57,0.00,,,-99.99,FreeWX 2.04,2013-02-22 01:47:00,
2013-02-21 18:52:00,35.4,21.7,24.86,East,79,3.0,5.4,57,0.00,,,-99.99,FreeWX 2.04,2013-02-22 01:52:00,
2013-02-21 18:57:00,35.2,21.6,24.86,East,79,3.0,4.5,57,0.00,,,-99.99,FreeWX 2.04,2013-02-22 01:57:00,
2013-02-21 19:08:00,34.7,21.0,24.86,East,79,1.0,2.7,57,0.00,,,-99.99,FreeWX 2.04,2013-02-22 02:08:00,
2013-02-21 19:13:00,34.5,21.2,24.86,North,-999,0.0,0.0,58,0.00,,,-99.99,FreeWX 2.04,2013-02-22 02:13:00,
2013-02-21 19:18:00,34.3,21.2,24.86,North,-999,0.0,4.0,58,0.00,,,-99.99,FreeWX 2.04,2013-02-22 02:18:00,
2013-02-21 19:23:00,34.5,21.2,24.86,East,79,2.0,4.5,58,0.00,,,-99.99,FreeWX 2.04,2013-02-22 02:23:00,
2013-02-21 19:28:00,34.3,21.2,24.86,East,79,2.0,4.0,58,0.00,,,-99.99,FreeWX 2.04,2013-02-22 02:28:00,
2013-02-21 19:33:00,34.2,21.0,24.86,North,-999,0.0,0.0,58,0.00,,,-99.99,FreeWX 2.04,2013-02-22 02:33:00,
2013-02-21 19:38:00,34.2,21.0,24.86,North,-999,0.0,0.0,58,0.00,,,-99.99,FreeWX 2.04,2013-02-22 02:38:00,
2013-02-21 19:43:00,34.2,21.0,24.86,North,-999,0.0,0.0,58,0.00,,,-99.99,FreeWX 2.04,2013-02-22 02:43:00,
2013-02-21 19:48:00,34.0,20.8,24.86,North,-999,0.0,0.0,58,0.00,,,-99.99,FreeWX 2.04,2013-02-22 02:48:00,
2013-02-21 19:53:00,34.2,21.0,24.86,North,-999,0.0,3.1,58,0.00,,,-99.99,FreeWX 2.04,2013-02-22 02:53:00,
2013-02-21 19:58:00,34.3,21.6,24.86,North,-999,0.0,5.4,59,0.00,,,-99.99,FreeWX 2.04,2013-02-22 02:58:00,
2013-02-21 20:03:00,35.4,22.5,24.86,East,81,3.0,9.2,59,0.00,,,-99.99,FreeWX 2.04,2013-02-22 03:03:00,
2013-02-21 20:08:00,36.1,22.5,24.86,East,81,6.0,8.7,57,0.00,,,-99.99,FreeWX 2.04,2013-02-22 03:08:00,
2013-02-21 20:13:00,36.3,21.7,24.86,East,79,6.0,9.2,55,0.00,,,-99.99,FreeWX 2.04,2013-02-22 03:13:00,
2013-02-21 20:18:00,36.5,21.0,24.89,East,81,6.0,8.7,53,0.00,,,-99.99,FreeWX 2.04,2013-02-22 03:18:00,
2013-02-21 20:23:00,36.7,20.7,24.89,East,86,6.0,8.3,52,0.00,,,-99.99,FreeWX 2.04,2013-02-22 03:23:00,
2013-02-21 20:28:00,36.7,20.3,24.89,East,86,5.0,6.9,51,0.00,,,-99.99,FreeWX 2.04,2013-02-22 03:28:00,
2013-02-21 20:33:00,36.7,20.3,24.86,East,85,4.0,6.7,51,0.00,,,-99.99,FreeWX 2.04,2013-02-22 03:33:00,
2013-02-21 20:38:00,36.7,19.8,24.86,East,91,5.0,9.6,50,0.00,,,-99.99,FreeWX 2.04,2013-02-22 03:38:00,
2013-02-21 20:43:00,36.7,19.8,24.86,East,92,6.0,9.6,50,0.00,,,-99.99,FreeWX 2.04,2013-02-22 03:43:00,
2013-02-21 20:48:00,36.5,19.6,24.89,East,90,6.0,8.7,50,0.00,,,-99.99,FreeWX 2.04,2013-02-22 03:48:00,
2013-02-21 20:53:00,36.1,19.4,24.89,East,93,6.0,6.7,50,0.00,,,-99.99,FreeWX 2.04,2013-02-22 03:53:00,
2013-02-21 20:58:00,36.1,19.8,24.89,East,94,5.0,7.8,51,0.00,,,-99.99,FreeWX 2.04,2013-02-22 03:58:00,
2013-02-21 21:03:00,36.0,19.6,24.89,East,92,5.0,6.9,51,0.00,,,-99.99,FreeWX 2.04,2013-02-22 04:03:00,
2013-02-21 21:08:00,35.8,19.4,24.89,East,90,5.0,6.3,51,0.00,,,-99.99,FreeWX 2.04,2013-02-22 04:08:00,
2013-02-21 21:13:00,35.8,19.9,24.89,East,87,4.0,6.7,52,0.00,,,-99.99,FreeWX 2.04,2013-02-22 04:13:00,
2013-02-21 21:18:00,35.8,19.9,24.89,East,85,4.0,5.8,52,0.00,,,-99.99,FreeWX 2.04,2013-02-22 04:18:00,
2013-02-21 21:23:00,35.6,19.8,24.89,East,90,3.0,5.8,52,0.00,,,-99.99,FreeWX 2.04,2013-02-22 04:23:00,
2013-02-21 21:28:00,35.6,20.1,24.89,East,98,3.0,5.8,53,0.00,,,-99.99,FreeWX 2.04,2013-02-22 04:28:00,
2013-02-21 21:33:00,35.6,20.7,24.89,SE,146,4.0,7.4,54,0.00,,,-99.99,FreeWX 2.04,2013-02-22 04:33:00,
2013-02-21 21:38:00,35.4,19.9,24.89,South,185,5.0,6.9,53,0.00,,,-99.99,FreeWX 2.04,2013-02-22 04:38:00,
2013-02-21 21:43:00,35.1,20.1,24.89,South,187,5.0,6.7,54,0.00,,,-99.99,FreeWX 2.04,2013-02-22 04:43:00,
2013-02-21 21:48:00,34.7,20.7,24.89,South,186,5.0,6.3,56,0.00,,,-99.99,FreeWX 2.04,2013-02-22 04:48:00,
2013-02-21 21:53:00,34.3,21.6,24.89,South,180,4.0,5.4,59,0.00,,,-99.99,FreeWX 2.04,2013-02-22 04:53:00,
2013-02-21 21:58:00,34.2,21.7,24.89,South,179,4.0,4.5,60,0.00,,,-99.99,FreeWX 2.04,2013-02-22 04:58:00,
2013-02-21 22:03:00,34.0,21.9,24.89,South,176,4.0,5.8,61,0.00,,,-99.99,FreeWX 2.04,2013-02-22 05:03:00,
2013-02-21 22:08:00,34.0,22.6,24.89,South,172,4.0,4.9,63,0.00,,,-99.99,FreeWX 2.04,2013-02-22 05:08:00,
2013-02-21 22:13:00,34.2,22.8,24.89,South,170,4.0,7.8,63,0.00,,,-99.99,FreeWX 2.04,2013-02-22 05:13:00,
2013-02-21 22:18:00,34.5,24.4,24.89,SSE,161,5.0,8.7,66,0.00,,,-99.99,FreeWX 2.04,2013-02-22 05:18:00,
2013-02-21 22:23:00,34.5,25.0,24.89,SSE,148,6.0,8.7,68,0.00,,,-99.99,FreeWX 2.04,2013-02-22 05:23:00,
2013-02-21 22:28:00,34.5,25.3,24.89,SE,132,6.0,8.7,69,0.00,,,-99.99,FreeWX 2.04,2013-02-22 05:28:00,
2013-02-21 22:33:00,34.3,25.9,24.89,ESE,118,7.0,10.1,71,0.00,,,-99.99,FreeWX 2.04,2013-02-22 05:33:00,
2013-02-21 22:38:00,34.2,26.1,24.89,ESE,106,6.0,9.2,72,0.00,,,-99.99,FreeWX 2.04,2013-02-22 05:38:00,
2013-02-21 22:43:00,34.2,26.1,24.89,East,99,5.0,6.9,72,0.00,,,-99.99,FreeWX 2.04,2013-02-22 05:43:00,
2013-02-21 22:49:00,34.3,26.2,24.89,East,85,5.0,6.7,72,0.00,,,-99.99,FreeWX 2.04,2013-02-22 05:49:00,
2013-02-21 22:54:00,34.3,25.9,24.89,ENE,69,3.0,5.4,71,0.00,,,-99.99,FreeWX 2.04,2013-02-22 05:54:00,
2013-02-21 22:59:00,34.3,25.5,24.89,ENE,68,1.0,0.0,70,0.00,,,-99.99,FreeWX 2.04,2013-02-22 05:59:00,
2013-02-21 23:04:00,34.2,25.3,24.89,ENE,62,2.0,5.4,70,0.00,,,-99.99,FreeWX 2.04,2013-02-22 06:04:00,
2013-02-21 23:09:00,34.2,25.3,24.89,NE,49,3.0,4.9,70,0.00,,,-99.99,FreeWX 2.04,2013-02-22 06:09:00,
2013-02-21 23:14:00,34.0,25.5,24.89,NE,43,3.0,5.4,71,0.00,,,-99.99,FreeWX 2.04,2013-02-22 06:14:00,
2013-02-21 23:19:00,34.0,25.9,24.89,NE,41,4.0,5.4,72,0.00,,,-99.99,FreeWX 2.04,2013-02-22 06:19:00,
2013-02-21 23:24:00,34.2,26.1,24.89,NE,39,4.0,4.9,72,0.00,,,-99.99,FreeWX 2.04,2013-02-22 06:24:00,
2013-02-21 23:29:00,34.2,26.1,24.89,NE,38,3.0,5.4,72,0.00,,,-99.99,FreeWX 2.04,2013-02-22 06:29:00,
2013-02-21 23:34:00,34.3,26.2,24.89,NE,36,3.0,6.7,72,0.00,,,-99.99,FreeWX 2.04,2013-02-22 06:34:00,
2013-02-21 23:39:00,34.0,25.9,24.89,NNE,29,3.0,7.8,72,0.00,,,-99.99,FreeWX 2.04,2013-02-22 06:39:00,
2013-02-21 23:44:00,33.6,26.2,24.89,NNE,23,5.0,9.6,74,0.00,,,-99.99,FreeWX 2.04,2013-02-22 06:44:00,
2013-02-21 23:49:00,33.4,26.4,24.92,NNE,21,6.0,9.6,75,0.00,,,-99.99,FreeWX 2.04,2013-02-22 06:49:00,
2013-02-21 23:54:00,33.8,26.1,24.92,NE,40,4.0,6.7,73,0.00,,,-99.99,FreeWX 2.04,2013-02-22 06:54:00,
2013-02-21 23:59:00,33.3,26.2,24.92,NE,46,4.0,10.5,75,0.00,,,-99.99,FreeWX 2.04,2013-02-22 06:59:00,